User: anonymous   Login
Location: Drummondville
(45.8830°N, 72.4830°W)
Time: 16:05:12
(UTC-05:00)
Language:

Vanguard 2 - Orbit

View from above orbital plane
View from above orbital plane
View from above satellite
View from above satellite

Ground track
Ground track

The orbit data is extracted from the following two-line orbital elements,

1    11U 59001A   17323.93910373 +.00000370 +00000-0 +19192-3 0  9993
2    11 032.8738 345.9981 1468814 342.8131 012.7393 11.85502053163328
Epoch (UTC): 19 November 2017 22:32:18
Eccentricity: 0.1468814
inclination: 32.8738°
perigee height: 553 km
apogee height: 2940 km
right ascension of ascending node: 345.9981°
argument of perigee: 342.8131°
revolutions per day: 11.85502053
mean anomaly at epoch: 12.7393°
orbit number at epoch: 16332

The dashed part of the orbit path shows where the satellite is in the earth's shadow,  

DLR